[Date Prev][Date Next][Thread Prev][Thread Next] - [Date Index][Thread Index][Author Index]
2 Line ISS Keps 12-14
- Subject: [sarex] 2 Line ISS Keps 12-14
- From: "Dave Larsen PhD" <doc@xxxxxxxxxxx>
- Date: Fri, 14 Dec 2001 03:45:39 -0800
ISS
1 25544U 98067A 01348.37089120 .00008017 00000-0 10493-3 0 8373
2 25544 51.6402 262.0324 0001458 49.1676 105.5481 15.59611521175205
----
Via the sarex mailing list at AMSAT.ORG courtesy of AMSAT-NA.
To unsubscribe, send "unsubscribe sarex" to Majordomo@amsat.org
AMSAT Home